Lid_Strength_Index
6 5 4 3 2 3 4 4 4 4 4 5 5 4 5 4 4 4 2 -0 2 5 5 3 3 5 5 5 7 5 5 5 8 12 12 12 13 10 8 8 9 9 10 11 10 12 14 6 6 8 6 4 4 4
6 5 4 3 3 3 3 4 4 4 5 5 5 5 5 4 4 5 2 -0 -1 3 3 1 1 1 2 2 4 4 5 5 5 7 8 9 11 8 9 12 8 10 9 13 12 12 8 6 5 3 3 4 4 4
5 5 4 3 3 3 3 3 4 4 5 5 5 5 5 5 5 5 3 0 1 3 3 3 3 1 0 1 0 5 4 3 4 3 5 6 9 8 13 13 10 8 5 7 7 7 6 4 4 3 3 3 3 3
5 5 5 4 3 3 3 4 4 4 5 5 5 5 5 5 5 6 3 -0 1 3 6 5 1 2 0 0 1 1 2 2 2 3 5 6 7 6 7 7 8 7 5 7 7 6 5 4 4 3 3 3 3 3
5 5 5 4 4 3 3 4 4 4 5 5 5 5 5 5 6 5 2 -1 -1 3 7 5 3 1 1 1 1 1 2 3 3 5 5 6 5 5 5 5 6 5 6 7 9 5 5 5 3 3 3 3 3 3
5 5 5 5 4 3 3 3 4 5 5 5 4 5 5 5 5 3 3 -0 -1 0 4 7 2 2 1 1 2 2 2 2 3 4 5 5 4 5 7 8 5 4 4 3 5 3 3 3 3 2 3 3 3 3
5 5 5 5 4 3 3 4 5 5 5 5 4 5 5 5 4 3 4 1 3 -0 4 7 6 3 2 2 2 3 2 3 3 4 5 5 5 4 6 8 5 4 3 3 3 3 4 3 4 3 3 2 2 2
5 5 5 5 4 3 3 5 5 5 5 5 4 4 5 5 5 4 1 3 1 2 3 7 7 5 2 4 5 2 4 4 4 4 4 5 5 5 7 5 4 3 3 3 3 3 3 3 3 3 2 2 3 3
5 5 5 5 4 3 3 5 5 5 5 5 5 4 2 3 2 1 2 2 -1 2 7 6 8 10 3 4 3 3 3 7 3 6 6 5 6 8 5 5 4 3 3 3 3 3 3 3 3 3 3 3 3 3
4 5 5 5 4 3 4 5 5 6 6 5 4 2 4 2 3 2 1 3 3 3 4 6 5 8 5 5 6 6 5 6 8 6 4 6 7 4 3 3 3 3 3 3 4 4 4 4 3 3 3 2 2 2
4 4 5 5 4 3 4 5 6 6 7 3 3 3 1 2 1 3 6 7 6 7 5 5 4 7 3 7 6 4 6 6 9 7 7 7 8 5 3 3 2 2 2 2 2 2 2 2 3 3 3 2 2 2
3 4 4 5 4 4 5 5 7 6 3 2 1 0 1 3 5 7 8 6 7 8 5 5 5 4 5 3 5 5 7 6 10 5 8 9 7 4 3 3 3 2 2 2 2 2 2 2 2 2 2 2 2 2
3 4 4 5 4 4 5 6 6 5 3 -0 2 4 5 5 12 9 11 8 8 5 5 5 6 5 5 4 5 6 8 9 5 8 9 7 6 4 3 3 3 2 2 2 2 2 2 2 2 2 2 2 2 2
3 3 4 5 4 4 6 6 6 6 3 4 6 12 8 8 7 7 7 6 5 4 5 4 6 6 6 7 6 9 7 6 9 10 9 7 5 4 3 2 3 3 3 2 2 2 2 2 2 2 1 1 1 2
3 3 4 4 4 5 6 6 6 3 3 6 6 12 8 5 5 4 4 4 4 3 4 5 6 5 7 7 6 7 9 10 8 9 8 6 4 4 3 3 3 3 2 2 2 2 2 2 2 2 1 1 1 1
3 3 4 4 5 5 6 6 6 3 3 5 5 7 5 6 6 5 4 4 3 3 4 5 7 8 9 9 9 9 9 10 7 6 6 4 4 4 3 2 2 2 2 2 2 2 1 2 2 2 1 1 1 1
3 5 4 5 5 6 7 5 4 4 5 5 6 4 4 5 6 5 5 4 2 4 7 7 9 9 6 9 9 7 8 7 5 5 4 4 4 3 2 2 2 2 2 2 1 1 1 1 1 1 1 1 1 1
3 4 5 6 6 6 5 5 4 5 7 5 6 5 4 4 5 4 4 3 3 5 6 8 6 8 9 9 8 6 6 4 4 4 4 3 3 3 2 2 2 2 2 2 1 1 1 1 2 2 1 1 1 1
4 5 5 5 5 4 6 5 3 7 5 4 4 3 4 4 3 3 4 4 3 3 4 6 8 9 9 6 5 5 4 5 6 4 4 2 2 2 2 2 2 2 2 1 1 2 2 1 2 2 2 2 2 2
5 5 5 5 5 5 6 6 3 5 6 5 3 4 5 4 3 3 4 4 4 5 7 7 7 6 6 5 3 4 4 4 4 5 5 4 3 2 2 2 3 2 2 2 2 3 2 2 2 1 1 2 2 2
6 6 5 5 4 4 5 6 5 5 4 5 4 4 4 3 4 4 4 3 6 6 7 5 4 4 3 2 3 3 2 3 4 5 5 4 4 3 3 3 2 2 2 2 2 2 4 2 1 1 1 1 1 1
6 5 5 4 5 5 5 3 4 3 4 5 4 4 5 6 5 4 3 5 5 5 4 4 3 3 4 3 3 2 1 1 2 2 5 4 3 4 4 3 3 3 3 2 2 3 2 1 1 1 1 1 2 1
5 4 6 5 7 8 8 3 5 4 6 6 5 6 6 5 4 3 5 4 4 3 2 3 2 2 3 3 2 2 1 2 3 2 2 3 2 2 2 2 2 3 4 2 2 2 2 3 1 1 1 1 1 2
4 6 8 8 8 9 4 6 4 5 5 6 7 8 7 6 4 5 7 5 4 3 3 2 2 3 3 2 3 3 2 2 2 2 2 2 3 3 2 2 2 2 2 2 2 2 2 2 3 1 1 1 1 2
11 11 9 12 7 7 7 7 6 7 8 7 8 8 7 5 7 7 7 6 4 4 4 3 3 3 3 3 3 2 1 2 3 3 2 2 2 2 3 3 1 1 1 2 2 2 2 2 2 1 1 1 2 2
12 9 10 8 8 8 8 9 8 7 7 7 7 6 5 6 9 9 7 5 5 4 4 4 4 4 3 3 3 3 3 2 2 3 2 2 2 3 4 4 4 2 1 1 1 2 2 2 1 1 2 2 5 3
11 9 7 5 6 6 6 6 6 6 7 8 6 6 8 9 9 7 4 4 5 3 2 2 2 2 4 4 3 2 1 1 1 2 1 1 1 2 1 2 3 2 1 1 1 1 2 2 1 2 2 2 2 2
8 7 9 6 6 5 8 7 7 7 6 5 5 8 9 8 8 5 4 3 3 1 1 1 1 1 2 2 2 2 2 1 1 1 1 1 1 0 0 1 0 5 1 1 1 1 1 1 1 1 2 2 1 1
8 6 6 8 7 7 6 6 6 5 3 4 6 7 7 4 3 3 3 3 2 2 2 3 2 2 1 2 2 2 2 2 3 4 4 4 3 2 1 1 1 0 0 0 6 4 1 1 1 1 1 1 1 1
8 5 7 7 8 8 6 4 5 4 2 3 3 3 4 4 2 1 1 1 2 2 2 2 2 2 3 4 4 3 2 2 2 3 4 4 3 1 1 1 1 1 0 0 1 1 6 2 2 1 2 1 1 1
5 5 7 7 7 6 5 3 3 3 3 3 2 4 5 4 3 1 1 1 1 2 2 3 2 2 2 3 3 4 4 2 2 1 1 1 1 1 1 1 0 0 1 1 1 1 1 1 1 1 1 2 2 2
6 6 7 8 6 4 3 4 4 5 4 4 4 3 4 4 5 4 2 1 3 4 4 3 3 3 1 2 1 1 4 1 1 1 1 1 1 1 1 0 0 0 0 0 0 1 1 1 1 1 2 1 1 1
5 5 5 6 6 6 5 5 6 6 5 5 5 4 4 4 7 4 1 1 2 2 2 1 1 2 1 1 1 1 4 0 4 10 10 11 12 7 1 1 1 0 0 0 1 1 1 1 1 1 1 1 1 1